Weather Roundup
Issued by NWS Springfield, MO

Home | Current Version | Previous Version | Text Only | Print | Product List | Glossary On
Versions: 1 2 3 4 5 6 7 8 9 10 11 12 13 14 15 16 17 18 19 20 21 22 23 24 25 26 27 28 29 30 31 32 33 34 35 36 37 38 39 40 41 42 43 44 45 46 47 48 49 50
842
NZUS99 KSGF 240557
HRRSGF

HOURLY WEATHER
NATIONAL WEATHER SERVICE SPRINGFIELD MO
100 AM CDT FRI MAR 24 2017

......SGF CWA......

CITY           SKY/WX    TMP DP  RH WIND       PRES   REMARKS
SPRINGFIELD    CLEAR     67  48  50 SE18      29.89F
6HR MIN TEMP:  66; 6HR MAX TEMP:  75;

JOPLIN         CLEAR     71  48  43 S21G28    29.85S
6HR MIN TEMP:  69; 6HR MAX TEMP:  74;

WEST PLAINS    CLEAR     64  52  64 SE14G21   30.01F
6HR MIN TEMP:  62; 6HR MAX TEMP:  69;

ROLLA          CLEAR     66  51  58 S20G26    29.91F
6HR MIN TEMP:  64; 6HR MAX TEMP:  72;


......SURROUNDING SGF CWA......

CITY           SKY/WX    TMP DP  RH WIND       PRES   REMARKS
CHANUTE        CLOUDY    68  50  52 S21G31    29.78F
PARSONS        PTCLDY    70  50  49 S9G20     29.80F
COFFEYVILLE    PTCLDY    69  51  52 SE14G22   29.79F
EMPORIA        MOCLDY    67  50  54 S20G26    29.72S
HARRISON AR    CLEAR     70  47  43 S25G37    29.94F

......KANSAS AND MISSOURI......

CITY           SKY/WX    TMP DP  RH WIND       PRES   REMARKS
KANSAS CTY INT CLOUDY    68  48  48 S20       29.77S
SEDALIA        PTCLDY    68  51  54 S14       29.87S
ST JOSEPH      MOCLDY    69  49  48 S16       29.77R
ST LOUIS       PTCLDY    58  43  57 SE13      29.96F
WICHITA        CLOUDY    70  49  47 S23G29    29.75R
TOPEKA         MOCLDY    70  51  51 VRB7G17   29.75R
OLATHE         CLOUDY    67  49  52 S21G26    29.78S

......TENNESSEE......

CITY           SKY/WX    TMP DP  RH WIND       PRES   REMARKS
MEMPHIS        NOT AVBL
NASHVILLE      CLEAR     61  44  53 S13       30.23S

......ARKANSAS.......

CITY           SKY/WX    TMP DP  RH WIND       PRES   REMARKS
FAYETTEVILLE   CLEAR     69  47  45 S13G35    29.91S
FT SMITH       PTCLDY    74  44  34 S9        29.91S
LITTLE ROCK    PTCLDY    65  52  62 S8        30.04S

......OKLAHOMA.......

CITY           SKY/WX    TMP DP  RH WIND       PRES   REMARKS
TULSA          PTCLDY    72  48  42 S17G23    29.79S
PONCA CITY     CLOUDY    73  46  38 S15G29    29.72R
MCALESTER      CLOUDY    74  42  31 S16G26    29.87R
OKLAHOMA CITY  PTCLDY    71  39  31 S29G40    29.80R

......IOWA............

CITY           SKY/WX    TMP DP  RH WIND       PRES   REMARKS
DES MOINES     NOT AVBL
QUAD CITIES    PTCLDY    48  40  73 VRB5      29.88F

......ILLINOIS........

CITY           SKY/WX    TMP DP  RH WIND       PRES   REMARKS
QUINCY         NOT AVBL
CHICAGO        CLOUDY    44  33  65 S8        29.98F




USA.gov is the U.S. government's official web portal to all federal, state and local government web resources and services.